This is the latest recevied weather packets stored in our database for station/object N9GKE-1. If no packets are shown the sender has not sent any weather packets the latest 10 day(s).
| Time | Temp. | Humidity | Pressure | Rain* | Wind** | Luminosity | Snow |
|---|---|---|---|---|---|---|---|
| 1778077295 | 11.67° C | 71% | 1014.1 hPa | 0 mm | - | - | - |
| 1778076695 | 11.67° C | 75% | 1014.2 hPa | 0 mm | - | - | - |
| 1778076094 | 11.11° C | 77% | 1013.9 hPa | 0 mm | - | - | - |
| 1778075495 | 11.11° C | 74% | 1013.7 hPa | 0 mm | - | - | - |
| 1778074895 | 10.56° C | 79% | 1013.6 hPa | 0 mm | - | - | - |
| 1778074298 | 10° C | 83% | 1013.5 hPa | 0 mm | - | - | - |
| 1778073699 | 9.44° C | 85% | 1013.2 hPa | 0 mm | - | - | - |
| 1778073095 | 9.44° C | 87% | 1013.1 hPa | 0 mm | - | - | - |
| 1778072495 | 8.89° C | 89% | 1012.9 hPa | 0 mm | - | - | - |
| 1778071894 | 8.33° C | 90% | 1012.9 hPa | 0 mm | - | - | - |
| 1778071294 | 8.33° C | 92% | 1012.7 hPa | 0 mm | - | - | - |
| 1778070695 | 7.78° C | 94% | 1012.6 hPa | 0 mm | - | - | - |
| 1778070095 | 7.78° C | 96% | 1012.6 hPa | 0 mm | - | - | - |
| 1778069495 | 7.78° C | 97% | 1012.6 hPa | 0 mm | - | - | - |
| 1778068896 | 6.67° C | 97% | 1012.4 hPa | 0 mm | - | - | - |
| 1778068295 | 6.11° C | 96% | 1012.3 hPa | 0 mm | - | - | - |
| 1778067695 | 5.56° C | 96% | 1012.2 hPa | 0 mm | - | - | - |
| 1778067095 | 5° C | 96% | 1011.9 hPa | 0 mm | - | - | - |
| 1778066495 | 5° C | 95% | 1011.8 hPa | 0 mm | - | - | - |
| 1778065894 | 5° C | 95% | 1011.8 hPa | 0 mm | - | - | - |
| 1778065294 | 5.56° C | 95% | 1011.5 hPa | 0 mm | - | - | - |
| 1778064695 | 5.56° C | 95% | 1011.2 hPa | 0 mm | - | - | - |
| 1778064094 | 5.56° C | 95% | 1010.9 hPa | 0 mm | - | - | - |
| 1778063495 | 6.11° C | 95% | 1011 hPa | 0 mm | - | - | - |
| 1778062894 | 6.11° C | 95% | 1011.1 hPa | 0 mm | - | - | - |
* Rain latest hour (hover to see other rain measurements)
** Current wind speed in m/s (hover to see current wind gust speed)